Location: Karcze
(52.0945°N, 22.4786°E)
Time: 02:31:54
(UTC+00:00)

Transit 2A Rocket - Pass Details

Date: 28 July 2021
Orbit: 586 x 917 km, 66.7° (Epoch: 27 September)

Event Time Altitude Azimuth Distance (km) Brightness Sun altitude
Rises 13:17:54 0° 193° (SSW) 2,841 8.4 44.3°
Reaches altitude 10° 13:20:10 10° 185° (S) 1,970 7.7 44.0°
Maximum altitude 13:24:16 38° 117° (ESE) 980 5.7 43.4°
Drops below altitude 10° 13:28:42 10° 50° (NE) 2,135 7.0 42.8°
Sets 13:31:15 0° 43° (NE) 3,113 7.7 42.5°
